When you browse on this site, cookies collect data to enhance your experience and personalize the content and advertising you see.
Visit our Privacy Policy to learn more. By continuing to use the site, you agree to this use of cookies and data.
  • In Lithuania
  • List of Countries
  • For 7 days
  • Water Temperature
  • Satellite Maps
  • Weather Map
  • Weather Widgets
  • user-avatar
    Login

    Hourly Weather San Carlos

    Today, 20 April, Saturday

    Time Temperature Precipitation Wind Pressure Humidity
    00:00 +29°C° 0 mm 1 mps 745 mmHg 67%
    01:00 +28°C° 0 mm 1 mps 745 mmHg 72%
    02:00 +28°C° 0 mm 1 mps 745 mmHg 72%
    03:00 +28°C° 0 mm 1 mps 745 mmHg 73%
    04:00 +28°C° 0 mm 1 mps 745 mmHg 73%
    05:00 +29°C° 0 mm 1 mps 745 mmHg 70%
    06:00 +29°C° 0 mm 1 mps 746 mmHg 66%
    07:00 +31°C° 0 mm 1 mps 747 mmHg 59%
    08:00 +32°C° 0 mm 2 mps 747 mmHg 54%
    09:00 +35°C° 0 mm 2 mps 747 mmHg 48%
    10:00 +36°C° 0 mm 3 mps 747 mmHg 43%
    11:00 +37°C° 0 mm 3 mps 746 mmHg 41%
    12:00 +37°C° 0 mm 3 mps 745 mmHg 40%
    13:00 +37°C° 0 mm 3 mps 745 mmHg 39%
    14:00 +37°C° 0.1 mm 2 mps 744 mmHg 39%
    15:00 +37°C° 0.1 mm 2 mps 744 mmHg 39%
    16:00 +37°C° 0.1 mm 2 mps 744 mmHg 39%
    17:00 +34°C° 0.1 mm 1 mps 744 mmHg 44%
    18:00 +33°C° 0.1 mm 1 mps 744 mmHg 49%
    19:00 +31°C° 0.1 mm 1 mps 744 mmHg 54%
    20:00 +30°C° 0 mm 1 mps 745 mmHg 58%
    21:00 +30°C° 0 mm 2 mps 745 mmHg 62%
    22:00 +29°C° 0 mm 2 mps 745 mmHg 66%
    23:00 +29°C° 0 mm 2 mps 745 mmHg 68%

    Tomorrow, 21 April, Sunday

    Time Temperature Precipitation Wind Pressure Humidity
    00:00 +28°C° 0 mm 2 mps 745 mmHg 70%
    01:00 +28°C° 0 mm 2 mps 745 mmHg 72%
    02:00 +28°C° 0 mm 2 mps 745 mmHg 73%
    03:00 +27°C° 0 mm 1 mps 745 mmHg 74%
    04:00 +27°C° 0 mm 1 mps 744 mmHg 74%
    05:00 +28°C° 0 mm 1 mps 745 mmHg 72%
    06:00 +29°C° 0 mm 1 mps 745 mmHg 69%
    07:00 +29°C° 0 mm 1 mps 746 mmHg 66%
    08:00 +31°C° 0.1 mm 1 mps 746 mmHg 59%
    09:00 +33°C° 0.1 mm 1 mps 746 mmHg 51%
    10:00 +36°C° 0.1 mm 1 mps 746 mmHg 44%
    11:00 +36°C° 0.2 mm 1 mps 746 mmHg 44%
    12:00 +36°C° 0.2 mm 1 mps 745 mmHg 44%
    13:00 +34°C° 0.2 mm 0 mps 744 mmHg 44%
    14:00 +34°C° 0.1 mm 0 mps 743 mmHg 44%
    15:00 +33°C° 0.1 mm 0 mps 743 mmHg 44%
    16:00 +33°C° 0.1 mm 0 mps 742 mmHg 44%
    17:00 +34°C° 0.1 mm 1 mps 742 mmHg 50%
    18:00 +32°C° 0.1 mm 2 mps 743 mmHg 55%
    19:00 +31°C° 0.1 mm 2 mps 743 mmHg 60%
    20:00 +30°C° 0.1 mm 3 mps 744 mmHg 63%
    21:00 +30°C° 0.1 mm 3 mps 744 mmHg 66%
    22:00 +29°C° 0.1 mm 3 mps 745 mmHg 68%
    23:00 +29°C° 0.1 mm 3 mps 744 mmHg 69%

    Day after tomorrow, 22 April, Monday

    Time Temperature Precipitation Wind Pressure Humidity
    00:00 +28°C° 0.1 mm 2 mps 744 mmHg 70%
    01:00 +28°C° 0.1 mm 2 mps 744 mmHg 71%
    02:00 +27°C° 0.1 mm 2 mps 744 mmHg 73%
    03:00 +27°C° 0.1 mm 1 mps 743 mmHg 74%
    04:00 +27°C° 0.1 mm 1 mps 743 mmHg 76%
    05:00 +27°C° 0 mm 1 mps 744 mmHg 73%
    06:00 +28°C° 0 mm 1 mps 744 mmHg 70%
    07:00 +29°C° 0 mm 1 mps 745 mmHg 68%
    08:00 +32°C° 0 mm 1 mps 745 mmHg 58%
    09:00 +33°C° 0 mm 0 mps 745 mmHg 49%
    10:00 +36°C° 0 mm 0 mps 746 mmHg 39%
    11:00 +35°C° 0.4 mm 0 mps 745 mmHg 42%
    12:00 +34°C° 0.4 mm 0 mps 744 mmHg 46%
    13:00 +32°C° 0.4 mm 0 mps 743 mmHg 49%
    14:00 +34°C° 0.2 mm 1 mps 742 mmHg 48%
    15:00 +35°C° 0.2 mm 1 mps 742 mmHg 47%
    16:00 +35°C° 0.2 mm 1 mps 741 mmHg 47%
    17:00 +33°C° 0.3 mm 1 mps 742 mmHg 52%
    18:00 +32°C° 0.3 mm 2 mps 742 mmHg 58%
    19:00 +30°C° 0.3 mm 2 mps 743 mmHg 64%
    20:00 +29°C° 0.4 mm 2 mps 743 mmHg 67%
    21:00 +28°C° 0.4 mm 2 mps 744 mmHg 71%
    22:00 +28°C° 0.4 mm 3 mps 744 mmHg 75%
    23:00 +27°C° 0.4 mm 2 mps 744 mmHg 76%

    23 April, Tuesday

    Time Temperature Precipitation Wind Pressure Humidity
    00:00 +27°C° 0.4 mm 2 mps 743 mmHg 77%
    01:00 +27°C° 0.4 mm 2 mps 743 mmHg 78%
    02:00 +27°C° 0.1 mm 1 mps 743 mmHg 78%
    03:00 +26°C° 0.1 mm 1 mps 743 mmHg 79%
    04:00 +24°C° 0.1 mm 0 mps 743 mmHg 80%
    05:00 +25°C° 0.2 mm 0 mps 743 mmHg 77%
    06:00 +26°C° 0.2 mm 0 mps 744 mmHg 74%
    07:00 +26°C° 0.2 mm 0 mps 745 mmHg 72%
    08:00 +29°C° 0.5 mm 1 mps 745 mmHg 70%
    09:00 +30°C° 0.5 mm 1 mps 745 mmHg 68%
    10:00 +30°C° 0.5 mm 1 mps 745 mmHg 66%
    11:00 +31°C° 0.9 mm 1 mps 745 mmHg 62%
    12:00 +32°C° 0.9 mm 1 mps 744 mmHg 59%
    13:00 +33°C° 0.9 mm 1 mps 743 mmHg 55%
    14:00 +33°C° 0.8 mm 1 mps 742 mmHg 55%
    15:00 +33°C° 0.8 mm 1 mps 742 mmHg 55%
    16:00 +31°C° 0.8 mm 0 mps 742 mmHg 55%
    17:00 +30°C° 0.8 mm 0 mps 742 mmHg 60%
    18:00 +29°C° 0.8 mm 0 mps 743 mmHg 65%
    19:00 +27°C° 0.8 mm 0 mps 743 mmHg 71%
    20:00 +29°C° 1 mm 1 mps 744 mmHg 73%
    21:00 +28°C° 1 mm 1 mps 744 mmHg 76%
    22:00 +28°C° 1 mm 1 mps 745 mmHg 79%
    23:00 +28°C° 0.5 mm 1 mps 744 mmHg 80%

    24 April, Wednesday

    Time Temperature Precipitation Wind Pressure Humidity
    00:00 +27°C° 0.5 mm 1 mps 744 mmHg 82%
    01:00 +27°C° 0.5 mm 1 mps 743 mmHg 84%
    02:00 +25°C° 0.8 mm 0 mps 743 mmHg 84%
    03:00 +25°C° 0.8 mm 0 mps 743 mmHg 85%
    04:00 +25°C° 0.8 mm 0 mps 743 mmHg 86%
    05:00 +25°C° 1.8 mm 0 mps 744 mmHg 85%
    06:00 +25°C° 1.8 mm 0 mps 744 mmHg 84%
    07:00 +26°C° 1.8 mm 0 mps 745 mmHg 83%
    08:00 +29°C° 1.9 mm 1 mps 745 mmHg 79%
    09:00 +30°C° 1.9 mm 1 mps 745 mmHg 75%
    10:00 +31°C° 1.9 mm 1 mps 745 mmHg 71%
    11:00 +31°C° 1.7 mm 1 mps 745 mmHg 69%
    12:00 +32°C° 1.7 mm 1 mps 744 mmHg 68%
    13:00 +32°C° 1.7 mm 1 mps 743 mmHg 67%
    14:00 +32°C° 0.9 mm 1 mps 743 mmHg 66%
    15:00 +30°C° 0.9 mm 0 mps 743 mmHg 65%
    16:00 +31°C° 0.9 mm 0 mps 742 mmHg 63%
    17:00 +31°C° 1.6 mm 1 mps 743 mmHg 70%
    18:00 +29°C° 1.6 mm 1 mps 744 mmHg 77%
    19:00 +28°C° 1.6 mm 1 mps 744 mmHg 84%
    20:00 +28°C° 0.9 mm 1 mps 744 mmHg 84%
    21:00 +28°C° 0.9 mm 1 mps 745 mmHg 84%
    22:00 +28°C° 0.9 mm 1 mps 745 mmHg 84%
    23:00 +27°C° 0.5 mm 1 mps 745 mmHg 84%

    25 April, Thursday

    Time Temperature Precipitation Wind Pressure Humidity
    00:00 +27°C° 0.5 mm 1 mps 744 mmHg 85%
    01:00 +27°C° 0.5 mm 1 mps 744 mmHg 86%
    02:00 +27°C° 0.3 mm 1 mps 744 mmHg 85%
    03:00 +27°C° 0.3 mm 1 mps 744 mmHg 85%
    04:00 +25°C° 0.3 mm 0 mps 744 mmHg 85%
    05:00 +25°C° 0.2 mm 0 mps 745 mmHg 84%
    06:00 +25°C° 0.2 mm 0 mps 745 mmHg 84%
    07:00 +25°C° 0.2 mm 0 mps 746 mmHg 83%
    08:00 +28°C° 0.5 mm 1 mps 746 mmHg 79%
    09:00 +29°C° 0.5 mm 1 mps 746 mmHg 76%
    10:00 +30°C° 0.5 mm 2 mps 746 mmHg 72%
    11:00 +30°C° 0.6 mm 1 mps 746 mmHg 72%
    12:00 +30°C° 0.6 mm 1 mps 745 mmHg 71%
    13:00 +30°C° 0.6 mm 1 mps 744 mmHg 71%
    14:00 +30°C° 0.2 mm 1 mps 744 mmHg 72%
    15:00 +29°C° 0.2 mm 1 mps 744 mmHg 74%
    16:00 +27°C° 0.2 mm 0 mps 743 mmHg 75%
    17:00 +27°C° 0 mm 0 mps 744 mmHg 78%
    18:00 +26°C° 0 mm 0 mps 744 mmHg 80%
    19:00 +25°C° 0 mm 0 mps 745 mmHg 83%
    20:00 +27°C° 0 mm 1 mps 745 mmHg 83%
    21:00 +27°C° 0 mm 1 mps 745 mmHg 83%
    22:00 +27°C° 0 mm 1 mps 746 mmHg 83%
    23:00 +27°C° 0 mm 1 mps 745 mmHg 83%
    Show more